Time,TemperatureF,DewpointF,PressureIn,WindDirection,WindDirectionDegrees,WindSpeedMPH,WindSpeedGustMPH,Humidity,HourlyPrecipIn,Conditions,Clouds,dailyrainin,SoftwareType,DateUTC
2013-03-06 00:02:00,27.0,26.0,30.02,North,5,5.0,11.0,95,0.00,,,0.21,,2013-03-06 06:02:00,
2013-03-06 00:11:00,27.0,26.0,30.02,North,5,5.0,11.0,95,0.00,,,0.21,,2013-03-06 06:11:00,
2013-03-06 00:22:00,27.0,26.0,30.02,NNE,15,7.0,15.0,95,0.00,,,0.21,,2013-03-06 06:22:00,
2013-03-06 00:32:00,27.0,26.0,30.03,North,5,6.0,13.0,94,0.00,,,0.21,,2013-03-06 06:32:00,
2013-03-06 00:42:00,27.0,26.0,30.03,North,5,6.0,13.0,94,0.00,,,0.21,,2013-03-06 06:42:00,
2013-03-06 00:52:00,27.0,26.0,30.04,NW,316,5.0,12.0,94,0.00,,,0.21,,2013-03-06 06:52:00,
2013-03-06 01:01:00,27.0,26.0,30.05,NW,310,6.0,15.0,94,0.00,,,0.21,,2013-03-06 07:01:00,
2013-03-06 01:11:00,27.0,26.0,30.05,NW,310,6.0,15.0,94,0.00,,,0.21,,2013-03-06 07:11:00,
2013-03-06 01:22:00,27.0,25.0,30.06,NNW,336,5.0,13.0,93,0.00,,,0.21,,2013-03-06 07:22:00,
2013-03-06 01:32:00,27.0,25.0,30.07,North,355,5.0,13.0,93,0.00,,,0.21,,2013-03-06 07:32:00,
2013-03-06 01:42:00,27.0,25.0,30.07,North,355,5.0,13.0,93,0.00,,,0.21,,2013-03-06 07:42:00,
2013-03-06 01:52:00,27.0,25.0,30.07,North,360,6.0,13.0,93,0.00,,,0.21,,2013-03-06 07:52:00,
2013-03-06 02:01:00,27.0,25.0,30.07,North,355,8.0,13.0,92,0.00,,,0.21,,2013-03-06 08:01:00,
2013-03-06 02:11:00,27.0,25.0,30.07,North,355,8.0,13.0,92,0.00,,,0.21,,2013-03-06 08:11:00,
2013-03-06 02:21:00,27.0,25.0,30.07,North,349,5.0,17.0,92,0.00,,,0.21,,2013-03-06 08:21:00,
2013-03-06 02:32:00,27.0,25.0,30.08,NW,325,4.0,12.0,91,0.00,,,0.21,,2013-03-06 08:32:00,
2013-03-06 02:42:00,27.0,25.0,30.08,NW,325,4.0,12.0,91,0.00,,,0.21,,2013-03-06 08:42:00,
2013-03-06 02:52:00,27.0,25.0,30.09,North,5,7.0,16.0,91,0.00,,,0.21,,2013-03-06 08:52:00,
2013-03-06 03:01:00,27.0,25.0,30.09,North,360,6.0,13.0,91,0.00,,,0.21,,2013-03-06 09:01:00,
2013-03-06 03:12:00,27.0,25.0,30.09,North,360,6.0,13.0,91,0.00,,,0.21,,2013-03-06 09:12:00,
2013-03-06 03:21:00,27.0,24.0,30.10,North,355,8.0,17.0,90,0.00,,,0.21,,2013-03-06 09:21:00,
2013-03-06 03:32:00,27.0,24.0,30.11,NNW,333,5.0,12.0,90,0.00,,,0.21,,2013-03-06 09:32:00,
2013-03-06 03:42:00,27.0,24.0,30.11,NNW,333,5.0,12.0,90,0.00,,,0.21,,2013-03-06 09:42:00,
2013-03-06 03:51:00,27.0,24.0,30.11,NW,325,6.0,13.0,90,0.00,,,0.21,,2013-03-06 09:51:00,
2013-03-06 04:01:00,27.0,24.0,30.12,NNW,343,6.0,15.0,90,0.00,,,0.21,,2013-03-06 10:01:00,
2013-03-06 04:11:00,27.0,24.0,30.12,NNW,343,6.0,15.0,90,0.00,,,0.21,,2013-03-06 10:11:00,
2013-03-06 04:21:00,27.0,24.0,30.12,North,360,9.0,16.0,89,0.00,,,0.21,,2013-03-06 10:21:00,
2013-03-06 04:32:00,27.0,24.0,30.14,NW,310,4.0,12.0,89,0.00,,,0.21,,2013-03-06 10:32:00,
2013-03-06 04:42:00,27.0,24.0,30.14,NW,310,4.0,12.0,89,0.00,,,0.21,,2013-03-06 10:42:00,
2013-03-06 04:51:00,27.0,24.0,30.15,NW,326,5.0,13.0,89,0.00,,,0.21,,2013-03-06 10:51:00,
2013-03-06 05:02:00,27.0,24.0,30.16,NW,317,7.0,12.0,88,0.00,,,0.21,,2013-03-06 11:02:00,
2013-03-06 05:11:00,27.0,24.0,30.16,NW,317,7.0,12.0,88,0.00,,,0.21,,2013-03-06 11:11:00,
2013-03-06 05:22:00,27.0,24.0,30.16,NW,325,5.0,12.0,88,0.00,,,0.21,,2013-03-06 11:22:00,
2013-03-06 05:32:00,27.0,24.0,30.17,WNW,301,3.0,9.0,89,0.00,,,0.21,,2013-03-06 11:32:00,
2013-03-06 05:42:00,27.0,24.0,30.17,WNW,301,3.0,9.0,89,0.00,,,0.21,,2013-03-06 11:42:00,
2013-03-06 05:52:00,27.0,24.0,30.17,NNW,342,5.0,10.0,89,0.00,,,0.21,,2013-03-06 11:52:00,
2013-03-06 06:02:00,27.0,24.0,30.18,NW,311,3.0,8.0,89,0.00,,,0.21,,2013-03-06 12:02:00,
2013-03-06 06:11:00,27.0,24.0,30.18,NW,311,3.0,8.0,89,0.00,,,0.21,,2013-03-06 12:11:00,
2013-03-06 06:21:00,27.0,24.0,30.19,NW,313,2.0,8.0,89,0.00,,,0.21,,2013-03-06 12:21:00,
2013-03-06 06:33:00,27.0,24.0,30.20,NW,325,2.0,7.0,90,0.00,,,0.21,,2013-03-06 12:33:00,
2013-03-06 06:42:00,27.0,24.0,30.20,NW,325,2.0,7.0,90,0.00,,,0.21,,2013-03-06 12:42:00,
2013-03-06 06:52:00,27.0,24.0,30.20,NNW,339,3.0,8.0,89,0.00,,,0.21,,2013-03-06 12:52:00,
2013-03-06 07:02:00,27.0,24.0,30.21,NW,322,3.0,8.0,89,0.00,,,0.21,,2013-03-06 13:02:00,
2013-03-06 07:12:00,27.0,24.0,30.21,NW,322,3.0,8.0,89,0.00,,,0.21,,2013-03-06 13:12:00,
2013-03-06 07:22:00,27.0,24.0,30.22,NW,315,2.0,8.0,89,0.00,,,0.21,,2013-03-06 13:22:00,
2013-03-06 07:32:00,27.0,24.0,30.23,West,261,5.0,9.0,89,0.00,,,0.21,,2013-03-06 13:32:00,
2013-03-06 07:42:00,27.0,24.0,30.23,West,261,5.0,9.0,89,0.00,,,0.21,,2013-03-06 13:42:00,
2013-03-06 07:52:00,26.0,23.0,30.24,NNE,14,2.0,11.0,88,0.00,,,0.21,,2013-03-06 13:52:00,
2013-03-06 08:01:00,26.0,23.0,30.24,WNW,300,4.0,11.0,88,0.00,,,0.21,,2013-03-06 14:01:00,
2013-03-06 08:11:00,26.0,23.0,30.24,WNW,300,4.0,11.0,88,0.00,,,0.21,,2013-03-06 14:11:00,
2013-03-06 08:22:00,26.0,23.0,30.25,NNW,336,5.0,11.0,88,0.00,,,0.21,,2013-03-06 14:22:00,
2013-03-06 08:32:00,26.0,23.0,30.26,NNW,346,4.0,16.0,89,0.00,,,0.21,,2013-03-06 14:32:00,
2013-03-06 08:42:00,26.0,23.0,30.26,NNW,346,4.0,16.0,89,0.00,,,0.21,,2013-03-06 14:42:00,
2013-03-06 08:52:00,27.0,24.0,30.25,NNW,348,4.0,13.0,88,0.00,,,0.21,,2013-03-06 14:52:00,
2013-03-06 09:02:00,27.0,24.0,30.26,WNW,300,3.0,13.0,88,0.00,,,0.21,,2013-03-06 15:02:00,
2013-03-06 09:11:00,27.0,24.0,30.26,WNW,300,3.0,13.0,88,0.00,,,0.21,,2013-03-06 15:11:00,
2013-03-06 09:21:00,27.0,24.0,30.27,NW,318,2.0,13.0,87,0.00,,,0.21,,2013-03-06 15:21:00,
2013-03-06 09:32:00,27.0,24.0,30.27,NNW,344,4.0,11.0,87,0.00,,,0.21,,2013-03-06 15:32:00,
2013-03-06 09:42:00,27.0,24.0,30.27,NNW,344,4.0,11.0,87,0.00,,,0.21,,2013-03-06 15:42:00,
2013-03-06 09:52:00,28.0,25.0,30.28,NNW,335,3.0,10.0,87,0.00,,,0.21,,2013-03-06 15:52:00,
2013-03-06 10:02:00,28.0,24.0,30.27,NNW,345,6.0,10.0,86,0.00,,,0.21,,2013-03-06 16:02:00,
2013-03-06 10:11:00,28.0,24.0,30.27,NNW,345,6.0,10.0,86,0.00,,,0.21,,2013-03-06 16:11:00,
2013-03-06 10:21:00,29.0,25.0,30.28,WNW,302,4.0,10.0,86,0.01,,,0.22,,2013-03-06 16:21:00,
2013-03-06 10:32:00,29.0,25.0,30.28,North,355,4.0,10.0,85,0.01,,,0.22,,2013-03-06 16:32:00,
2013-03-06 10:42:00,29.0,25.0,30.28,North,355,4.0,10.0,85,0.01,,,0.22,,2013-03-06 16:42:00,
2013-03-06 10:52:00,30.0,26.0,30.29,North,5,4.0,12.0,86,0.01,,,0.22,,2013-03-06 16:52:00,
2013-03-06 11:01:00,30.0,26.0,30.29,WSW,248,5.0,12.0,84,0.01,,,0.22,,2013-03-06 17:01:00,
2013-03-06 11:11:00,30.0,26.0,30.29,WSW,248,5.0,12.0,84,0.01,,,0.22,,2013-03-06 17:11:00,
2013-03-06 11:21:00,30.0,26.0,30.29,NNW,339,5.0,12.0,84,0.01,,,0.23,,2013-03-06 17:21:00,
2013-03-06 11:32:00,30.0,26.0,30.29,NNW,347,3.0,13.0,84,0.02,,,0.24,,2013-03-06 17:32:00,
2013-03-06 11:42:00,30.0,26.0,30.29,NNW,347,3.0,13.0,84,0.02,,,0.24,,2013-03-06 17:42:00,
2013-03-06 11:52:00,31.0,26.0,30.29,NW,308,3.0,12.0,83,0.02,,,0.24,,2013-03-06 17:52:00,
2013-03-06 12:02:00,31.0,26.0,30.28,WNW,292,6.0,14.0,82,0.02,,,0.24,,2013-03-06 18:02:00,
2013-03-06 12:28:00,31.0,26.0,30.29,North,5,6.0,15.0,82,0.02,,,0.25,,2013-03-06 18:28:00,
2013-03-06 12:42:00,31.0,26.0,30.29,NW,325,5.0,12.0,82,0.02,,,0.26,,2013-03-06 18:42:00,
2013-03-06 12:52:00,31.0,26.0,30.28,NNW,336,4.0,14.0,82,0.03,,,0.27,,2013-03-06 18:52:00,
2013-03-06 13:02:00,31.0,26.0,30.28,WNW,296,5.0,12.0,82,0.04,,,0.28,,2013-03-06 19:02:00,
2013-03-06 13:11:00,31.0,26.0,30.28,WNW,296,5.0,12.0,82,0.04,,,0.28,,2013-03-06 19:11:00,
2013-03-06 13:22:00,31.0,26.0,30.27,NW,310,5.0,11.0,82,0.04,,,0.24,,2013-03-06 19:22:00,
2013-03-06 13:32:00,31.0,26.0,30.27,North,355,5.0,10.0,81,0.04,,,0.25,,2013-03-06 19:32:00,
2013-03-06 13:43:00,31.0,26.0,30.27,North,355,5.0,10.0,81,0.04,,,0.25,,2013-03-06 19:43:00,
2013-03-06 13:52:00,31.0,26.0,30.27,NNW,344,6.0,13.0,80,0.04,,,0.26,,2013-03-06 19:52:00,
2013-03-06 14:02:00,32.0,27.0,30.28,WNW,296,4.0,8.0,81,0.04,,,0.27,,2013-03-06 20:02:00,
2013-03-06 14:12:00,32.0,27.0,30.28,WNW,296,4.0,8.0,81,0.04,,,0.27,,2013-03-06 20:12:00,
2013-03-06 14:22:00,31.0,26.0,30.28,WSW,257,4.0,11.0,82,0.03,,,0.22,,2013-03-06 20:22:00,
2013-03-06 14:32:00,31.0,26.0,30.29,West,271,3.0,13.0,82,0.03,,,0.23,,2013-03-06 20:32:00,
2013-03-06 14:42:00,31.0,26.0,30.29,West,271,3.0,13.0,82,0.03,,,0.23,,2013-03-06 20:42:00,
2013-03-06 14:52:00,31.0,26.0,30.29,WNW,298,3.0,9.0,81,0.02,,,0.23,,2013-03-06 20:52:00,
2013-03-06 15:02:00,31.0,26.0,30.29,WNW,300,4.0,8.0,81,0.01,,,0.23,,2013-03-06 21:02:00,
2013-03-06 15:11:00,31.0,26.0,30.29,WNW,300,4.0,8.0,81,0.01,,,0.23,,2013-03-06 21:11:00,
2013-03-06 15:22:00,31.0,26.0,30.29,NNW,338,3.0,9.0,81,0.02,,,0.21,,2013-03-06 21:22:00,
2013-03-06 15:32:00,31.0,26.0,30.30,NNE,32,3.0,8.0,81,0.01,,,0.21,,2013-03-06 21:32:00,
2013-03-06 15:42:00,31.0,26.0,30.30,NNE,32,3.0,8.0,81,0.01,,,0.21,,2013-03-06 21:42:00,
2013-03-06 15:51:00,31.0,26.0,30.30,NW,312,3.0,10.0,82,0.01,,,0.21,,2013-03-06 21:51:00,
2013-03-06 16:01:00,31.0,26.0,30.30,West,275,4.0,8.0,82,0.02,,,0.22,,2013-03-06 22:01:00,
2013-03-06 16:11:00,31.0,26.0,30.30,West,275,4.0,8.0,82,0.02,,,0.22,,2013-03-06 22:11:00,
2013-03-06 16:22:00,30.0,25.0,30.30,West,263,3.0,9.0,83,0.01,,,0.17,,2013-03-06 22:22:00,
2013-03-06 16:32:00,30.0,25.0,30.31,North,11,2.0,8.0,82,0.01,,,0.17,,2013-03-06 22:32:00,
2013-03-06 16:42:00,30.0,25.0,30.31,North,11,2.0,8.0,82,0.01,,,0.17,,2013-03-06 22:42:00,
2013-03-06 16:51:00,30.0,26.0,30.32,North,355,0.0,11.0,84,0.01,,,0.17,,2013-03-06 22:51:00,
2013-03-06 17:01:00,30.0,26.0,30.32,WNW,296,2.0,9.0,84,0.00,,,0.17,,2013-03-06 23:01:00,
2013-03-06 17:11:00,30.0,26.0,30.32,WNW,296,2.0,9.0,84,0.00,,,0.17,,2013-03-06 23:11:00,
2013-03-06 17:21:00,29.0,25.0,30.32,North,350,3.0,7.0,84,0.00,,,0.15,,2013-03-06 23:21:00,
2013-03-06 17:32:00,29.0,25.0,30.32,NW,323,0.0,5.0,86,0.00,,,0.15,,2013-03-06 23:32:00,
2013-03-06 17:42:00,29.0,25.0,30.32,NW,323,0.0,5.0,86,0.00,,,0.15,,2013-03-06 23:42:00,
2013-03-06 17:52:00,29.0,25.0,30.32,WNW,284,2.0,6.0,86,0.00,,,0.15,,2013-03-06 23:52:00,
2013-03-06 18:01:00,29.0,25.0,30.32,NNW,331,2.0,5.0,86,0.00,,,0.15,,2013-03-07 00:01:00,
2013-03-06 18:11:00,29.0,25.0,30.32,NNW,331,2.0,5.0,86,0.00,,,0.15,,2013-03-07 00:11:00,
2013-03-06 18:21:00,29.0,25.0,30.33,NW,323,1.0,6.0,85,0.00,,,0.14,,2013-03-07 00:21:00,
2013-03-06 18:32:00,29.0,25.0,30.33,NW,326,2.0,8.0,85,0.00,,,0.14,,2013-03-07 00:32:00,
2013-03-06 18:42:00,29.0,25.0,30.33,NW,326,2.0,8.0,85,0.00,,,0.14,,2013-03-07 00:42:00,
2013-03-06 18:52:00,29.0,25.0,30.33,NW,326,2.0,8.0,85,0.00,,,0.14,,2013-03-07 00:52:00,
2013-03-06 19:01:00,28.0,24.0,30.34,West,269,1.0,5.0,86,0.00,,,0.14,,2013-03-07 01:01:00,
2013-03-06 19:11:00,28.0,24.0,30.34,West,269,1.0,5.0,86,0.00,,,0.14,,2013-03-07 01:11:00,
2013-03-06 19:21:00,28.0,24.0,30.33,NNW,327,1.0,5.0,86,0.00,,,0.14,,2013-03-07 01:21:00,
2013-03-06 19:32:00,28.0,25.0,30.34,WNW,292,1.0,3.0,87,0.00,,,0.14,,2013-03-07 01:32:00,
2013-03-06 19:42:00,28.0,25.0,30.34,WNW,292,1.0,3.0,87,0.00,,,0.14,,2013-03-07 01:42:00,
2013-03-06 19:52:00,28.0,25.0,30.34,NW,304,1.0,5.0,87,0.00,,,0.14,,2013-03-07 01:52:00,
2013-03-06 20:01:00,28.0,25.0,30.33,NW,315,1.0,4.0,87,0.00,,,0.14,,2013-03-07 02:01:00,
2013-03-06 20:11:00,28.0,25.0,30.33,NW,315,1.0,4.0,87,0.00,,,0.14,,2013-03-07 02:11:00,
2013-03-06 20:21:00,27.0,24.0,30.34,NW,322,0.0,3.0,87,0.00,,,0.14,,2013-03-07 02:21:00,
2013-03-06 20:32:00,27.0,24.0,30.34,NW,321,1.0,4.0,88,0.00,,,0.14,,2013-03-07 02:32:00,
2013-03-06 20:41:00,27.0,24.0,30.34,NW,321,1.0,4.0,88,0.00,,,0.14,,2013-03-07 02:41:00,
2013-03-06 20:52:00,27.0,24.0,30.34,NW,321,1.0,4.0,88,0.00,,,0.14,,2013-03-07 02:52:00,
2013-03-06 21:02:00,27.0,24.0,30.34,NNW,327,0.0,4.0,88,0.00,,,0.14,,2013-03-07 03:02:00,
2013-03-06 21:11:00,27.0,24.0,30.34,NNW,327,0.0,4.0,88,0.00,,,0.14,,2013-03-07 03:11:00,
2013-03-06 21:21:00,27.0,24.0,30.34,NNW,338,1.0,5.0,87,0.00,,,0.14,,2013-03-07 03:21:00,
2013-03-06 21:32:00,27.0,24.0,30.34,North,5,1.0,4.0,87,0.00,,,0.14,,2013-03-07 03:32:00,
2013-03-06 21:42:00,27.0,24.0,30.34,North,5,1.0,4.0,87,0.00,,,0.14,,2013-03-07 03:42:00,
2013-03-06 21:52:00,27.0,24.0,30.34,North,355,0.0,3.0,87,0.00,,,0.14,,2013-03-07 03:52:00,
2013-03-06 22:01:00,27.0,24.0,30.34,NW,311,0.0,2.0,87,0.00,,,0.14,,2013-03-07 04:01:00,
2013-03-06 22:11:00,27.0,24.0,30.34,NW,311,0.0,2.0,87,0.00,,,0.14,,2013-03-07 04:11:00,
2013-03-06 22:21:00,27.0,24.0,30.34,NW,311,0.0,2.0,87,0.00,,,0.14,,2013-03-07 04:21:00,
2013-03-06 22:31:00,27.0,24.0,30.33,NNW,331,0.0,4.0,88,0.00,,,0.14,,2013-03-07 04:31:00,
2013-03-06 22:42:00,27.0,24.0,30.33,NNW,331,0.0,4.0,88,0.00,,,0.14,,2013-03-07 04:42:00,
2013-03-06 22:52:00,27.0,24.0,30.33,WNW,300,0.0,3.0,88,0.00,,,0.14,,2013-03-07 04:52:00,
2013-03-06 23:02:00,27.0,24.0,30.33,WSW,248,0.0,3.0,88,0.00,,,0.14,,2013-03-07 05:02:00,
2013-03-06 23:12:00,27.0,24.0,30.33,WSW,248,0.0,3.0,88,0.00,,,0.14,,2013-03-07 05:12:00,
2013-03-06 23:22:00,27.0,24.0,30.33,West,279,0.0,2.0,88,0.00,,,0.14,,2013-03-07 05:22:00,
2013-03-06 23:32:00,27.0,24.0,30.33,NW,318,0.0,2.0,88,0.00,,,0.14,,2013-03-07 05:32:00,
2013-03-06 23:42:00,27.0,24.0,30.33,NW,318,0.0,2.0,88,0.00,,,0.14,,2013-03-07 05:42:00,
2013-03-06 23:52:00,27.0,24.0,30.33,North,360,0.0,3.0,88,0.00,,,0.14,,2013-03-07 05:52:00,